SVA1430 OEJN-OEMA

Flight info

Callsign SVA1430
Flight time 0h 37m
Altitude 30000
Route DATAP2W/34C DATAP A424 DEGVU
Aircraft A320/M-SDE3FGHIRWY/LB1

Departure

Time 2026-04-24 19:14
Airport King Abdulaziz International Airport (OEJN)

Arrival

Time 2026-04-24 19:51
Airport Prince Mohammad Bin Abdulaziz Airport (OEMA)
Time Latitude Longitude Altitude Speed Heading
2026-04-24 18:54 21.66377 39.17465 52 ft 0 kts 201°
2026-04-24 19:06 21.66388 39.17469 50 ft 0 kts 200°
2026-04-24 19:07 21.66399 39.17474 53 ft 5 kts 200°
2026-04-24 19:07 21.66431 39.17486 54 ft 5 kts 199°
2026-04-24 19:07 21.66449 39.17493 54 ft 4 kts 195°
2026-04-24 19:07 21.66474 39.17497 54 ft 2 kts 155°
2026-04-24 19:08 21.66484 39.17489 49 ft 2 kts 121°
2026-04-24 19:08 21.66489 39.17479 51 ft 2 kts 112°
2026-04-24 19:08 21.66490 39.17477 50 ft 0 kts 112°
2026-04-24 19:10 21.66487 39.17493 49 ft 4 kts 97°
2026-04-24 19:10 21.66495 39.17538 54 ft 8 kts 69°
2026-04-24 19:10 21.66521 39.17613 52 ft 13 kts 69°
2026-04-24 19:11 21.66556 39.17719 51 ft 16 kts 70°
2026-04-24 19:11 21.66588 39.17817 52 ft 1 kts 70°
2026-04-24 19:11 21.66589 39.17818 52 ft 1 kts 70°
2026-04-24 19:11 21.66599 39.17845 56 ft 4 kts 67°
2026-04-24 19:12 21.66608 39.17869 58 ft 3 kts 68°
2026-04-24 19:12 21.66613 39.17883 53 ft 1 kts 68°
2026-04-24 19:12 21.66617 39.17892 54 ft 3 kts 68°
2026-04-24 19:12 21.66633 39.17934 56 ft 9 kts 69°
2026-04-24 19:13 21.66650 39.17982 52 ft 12 kts 69°
2026-04-24 19:13 21.66726 39.18019 54 ft 16 kts 340°
2026-04-24 19:13 21.67030 39.17902 51 ft 82 kts 340°
2026-04-24 19:13 21.67758 39.17616 54 ft 139 kts 339°
2026-04-24 19:14 21.68789 39.17213 318 ft 161 kts 341°
2026-04-24 19:14 21.69823 39.16824 974 ft 158 kts 340°
2026-04-24 19:14 21.70927 39.16502 1468 ft 169 kts 347°
2026-04-24 19:14 21.72085 39.16260 1949 ft 178 kts 350°
2026-04-24 19:15 21.73358 39.16027 2298 ft 194 kts 350°
2026-04-24 19:15 21.74736 39.15788 2698 ft 208 kts 352°
2026-04-24 19:15 21.76242 39.15765 3043 ft 223 kts
2026-04-24 19:15 21.77816 39.16150 3366 ft 242 kts 21°
2026-04-24 19:16 21.81243 39.17409 4385 ft 277 kts 20°
2026-04-24 19:16 21.83127 39.18098 4930 ft 295 kts 19°
2026-04-24 19:16 21.85113 39.18821 5454 ft 312 kts 19°
2026-04-24 19:17 21.87216 39.19586 6179 ft 320 kts 18°
2026-04-24 19:17 21.89297 39.20345 6995 ft 321 kts 17°
2026-04-24 19:17 21.91424 39.21124 7792 ft 324 kts 17°
2026-04-24 19:17 21.93571 39.21913 8606 ft 327 kts 16°
2026-04-24 19:18 21.95742 39.22709 9392 ft 331 kts 15°
2026-04-24 19:18 21.97915 39.23508 10122 ft 334 kts 15°
2026-04-24 19:18 22.00176 39.24340 10580 ft 348 kts 16°
2026-04-24 19:18 22.02520 39.25201 10925 ft 364 kts 16°
2026-04-24 19:19 22.04960 39.26098 11217 ft 381 kts 16°
2026-04-24 19:19 22.07494 39.27031 11460 ft 397 kts 16°
2026-04-24 19:19 22.10160 39.28016 11723 ft 412 kts 16°
2026-04-24 19:19 22.12902 39.29030 12219 ft 418 kts 16°
2026-04-24 19:20 22.15662 39.30050 12781 ft 422 kts 16°
2026-04-24 19:20 22.18452 39.31082 13349 ft 427 kts 16°
2026-04-24 19:20 22.21286 39.32129 13877 ft 432 kts 16°
2026-04-24 19:20 22.24150 39.33185 14378 ft 437 kts 16°
2026-04-24 19:21 22.27038 39.34251 14886 ft 442 kts 16°
2026-04-24 19:21 22.29955 39.35333 15388 ft 446 kts 16°
2026-04-24 19:21 22.32912 39.36430 15876 ft 451 kts 16°
2026-04-24 19:21 22.35870 39.37527 16358 ft 455 kts 16°
2026-04-24 19:22 22.37876 39.38269 16666 ft 458 kts 16°
2026-04-24 19:22 22.41889 39.39756 17284 ft 463 kts 16°
2026-04-24 19:22 22.44943 39.40889 17734 ft 467 kts 16°
2026-04-24 19:22 22.48042 39.42037 18178 ft 471 kts 15°
2026-04-24 19:23 22.51155 39.43191 18549 ft 475 kts 16°
2026-04-24 19:23 22.54295 39.44353 18939 ft 477 kts 16°
2026-04-24 19:23 22.57444 39.45520 19331 ft 480 kts 16°
2026-04-24 19:23 22.60613 39.46697 19712 ft 483 kts 16°
2026-04-24 19:24 22.63797 39.47882 20094 ft 485 kts 16°
2026-04-24 19:24 22.66992 39.49075 20449 ft 487 kts 16°
2026-04-24 19:24 22.70148 39.50277 20788 ft 490 kts 17°
2026-04-24 19:24 22.73357 39.51514 21122 ft 492 kts 15°
2026-04-24 19:25 22.76687 39.52374 21450 ft 488 kts
2026-04-24 19:25 22.80053 39.52923 21754 ft 491 kts
2026-04-24 19:25 22.83440 39.53469 22057 ft 493 kts
2026-04-24 19:25 22.86839 39.54010 22367 ft 495 kts
2026-04-24 19:26 22.90248 39.54550 22665 ft 497 kts
2026-04-24 19:26 22.93674 39.55095 22960 ft 499 kts
2026-04-24 19:26 22.97064 39.55636 23258 ft 501 kts
2026-04-24 19:26 23.00569 39.56195 23518 ft 503 kts
2026-04-24 19:27 23.03973 39.56741 23738 ft 504 kts
2026-04-24 19:27 23.07467 39.57302 23950 ft 506 kts
2026-04-24 19:27 23.10960 39.57863 24143 ft 508 kts
2026-04-24 19:27 23.14467 39.58426 24350 ft 510 kts
2026-04-24 19:28 23.17973 39.58990 24579 ft 511 kts
2026-04-24 19:28 23.21481 39.59554 24795 ft 513 kts
2026-04-24 19:28 23.25042 39.60126 24890 ft 516 kts
2026-04-24 19:28 23.28590 39.60696 24910 ft 516 kts
2026-04-24 19:29 23.35679 39.61841 24921 ft 516 kts
2026-04-24 19:29 23.39236 39.62415 24926 ft 515 kts
2026-04-24 19:29 23.42728 39.62976 24923 ft 516 kts
2026-04-24 19:30 23.46285 39.63546 24941 ft 516 kts
2026-04-24 19:30 23.49814 39.64115 24933 ft 515 kts
2026-04-24 19:30 23.53388 39.64695 24940 ft 515 kts
2026-04-24 19:30 23.56915 39.65267 24950 ft 515 kts
2026-04-24 19:31 23.60479 39.65599 24941 ft 511 kts 357°
2026-04-24 19:31 23.64031 39.65782 24952 ft 510 kts 357°
2026-04-24 19:31 23.67564 39.65963 24957 ft 510 kts 358°
2026-04-24 19:31 23.71122 39.66425 24949 ft 517 kts
2026-04-24 19:32 23.74594 39.67552 24959 ft 524 kts 17°
2026-04-24 19:32 23.77981 39.69009 24967 ft 524 kts 18°
2026-04-24 19:32 23.81325 39.70455 24971 ft 524 kts 18°
2026-04-24 19:32 23.84721 39.71924 24963 ft 524 kts 18°
2026-04-24 19:33 23.88102 39.73382 24970 ft 524 kts 18°
2026-04-24 19:33 23.91491 39.74840 24963 ft 516 kts 17°
2026-04-24 19:33 23.94750 39.76246 24932 ft 492 kts 17°
2026-04-24 19:33 23.97875 39.77597 24715 ft 476 kts 17°
2026-04-24 19:34 24.00892 39.78903 24492 ft 454 kts 17°
2026-04-24 19:34 24.03758 39.80146 24275 ft 435 kts 17°
2026-04-24 19:34 24.06518 39.81332 24062 ft 433 kts 17°
2026-04-24 19:34 24.09318 39.82533 23836 ft 431 kts 16°
2026-04-24 19:35 24.12109 39.83728 23612 ft 429 kts 17°
2026-04-24 19:35 24.14883 39.84915 23367 ft 427 kts 17°
2026-04-24 19:35 24.17628 39.86093 22951 ft 423 kts 17°
2026-04-24 19:35 24.20351 39.87262 22158 ft 418 kts 15°
2026-04-24 19:36 24.23116 39.88042 21289 ft 404 kts
2026-04-24 19:36 24.25889 39.88129 20529 ft 394 kts 348°
2026-04-24 19:36 24.28589 39.87648 19817 ft 394 kts 342°
2026-04-24 19:36 24.31276 39.87074 19228 ft 395 kts 342°
2026-04-24 19:37 24.33944 39.86512 18734 ft 394 kts 342°
2026-04-24 19:37 24.36630 39.85947 18264 ft 392 kts 342°
2026-04-24 19:37 24.39288 39.85395 17723 ft 391 kts 342°
2026-04-24 19:37 24.41953 39.84846 16993 ft 383 kts 342°
2026-04-24 19:38 24.44558 39.84307 16107 ft 379 kts 343°
2026-04-24 19:38 24.47131 39.83769 15296 ft 375 kts 343°
2026-04-24 19:38 24.49669 39.83229 14517 ft 370 kts 343°
2026-04-24 19:38 24.52184 39.82687 13745 ft 365 kts 343°
2026-04-24 19:39 24.54669 39.82147 12891 ft 361 kts 343°
2026-04-24 19:39 24.57110 39.81618 12113 ft 354 kts 344°
2026-04-24 19:39 24.59465 39.81112 11348 ft 348 kts 345°
2026-04-24 19:39 24.61852 39.80604 10660 ft 339 kts 346°
2026-04-24 19:40 24.64096 39.80128 9997 ft 331 kts 346°
2026-04-24 19:40 24.66350 39.79651 9295 ft 327 kts 347°
2026-04-24 19:40 24.68567 39.79181 8854 ft 325 kts 347°
2026-04-24 19:40 24.70784 39.78712 8096 ft 323 kts 347°
2026-04-24 19:41 24.72996 39.78241 7540 ft 323 kts 348°
2026-04-24 19:41 24.75191 39.77773 7125 ft 320 kts 349°
2026-04-24 19:41 24.77380 39.77304 6992 ft 321 kts 349°
2026-04-24 19:41 24.79546 39.76842 7002 ft 322 kts 349°
2026-04-24 19:42 24.81777 39.76366 7010 ft 321 kts 348°
2026-04-24 19:42 24.83971 39.75899 7007 ft 321 kts 349°
2026-04-24 19:42 24.86126 39.75441 7010 ft 322 kts 349°
2026-04-24 19:42 24.88329 39.74972 7012 ft 322 kts 349°
2026-04-24 19:43 24.90502 39.74344 7016 ft 323 kts 334°
2026-04-24 19:43 24.92213 39.72803 7015 ft 320 kts 303°
2026-04-24 19:43 24.92998 39.70580 7012 ft 314 kts 273°
2026-04-24 19:43 24.92847 39.68209 7007 ft 310 kts 256°
2026-04-24 19:44 24.92202 39.65962 7006 ft 306 kts 239°
2026-04-24 19:44 24.90818 39.64290 7004 ft 287 kts 208°
2026-04-24 19:44 24.89001 39.63724 7001 ft 264 kts 178°
2026-04-24 19:44 24.87275 39.64005 6994 ft 245 kts 168°
2026-04-24 19:45 24.85657 39.64360 6998 ft 227 kts 168°
2026-04-24 19:45 24.84107 39.64694 7004 ft 237 kts 169°
2026-04-24 19:45 24.82470 39.65043 6839 ft 242 kts 169°
2026-04-24 19:45 24.80827 39.65394 6548 ft 237 kts 168°
2026-04-24 19:46 24.79225 39.65735 6259 ft 233 kts 167°
2026-04-24 19:46 24.77644 39.66072 5959 ft 232 kts 167°
2026-04-24 19:46 24.76054 39.66412 5661 ft 231 kts 167°
2026-04-24 19:46 24.74479 39.66747 5365 ft 229 kts 167°
2026-04-24 19:47 24.72955 39.67072 5090 ft 226 kts 167°
2026-04-24 19:47 24.71407 39.67402 4801 ft 225 kts 166°
2026-04-24 19:47 24.69880 39.67727 4514 ft 222 kts 166°
2026-04-24 19:47 24.68403 39.68041 4233 ft 211 kts 166°
2026-04-24 19:48 24.66987 39.68342 3980 ft 205 kts 166°
2026-04-24 19:48 24.65609 39.68635 3712 ft 199 kts 166°
2026-04-24 19:48 24.62948 39.69201 3234 ft 190 kts 166°
2026-04-24 19:49 24.60922 39.69633 2846 ft 161 kts 169°
2026-04-24 19:49 24.58565 39.70148 2390 ft 145 kts 170°
2026-04-24 19:50 24.55944 39.70692 2113 ft 75 kts 169°
2026-04-24 19:50 24.55673 39.70750 2105 ft 50 kts 169°
2026-04-24 19:51 24.55264 39.70920 2099 ft 20 kts 141°
2026-04-24 19:51 24.55210 39.70977 2099 ft 7 kts 121°
2026-04-24 19:52 24.55214 39.71055 2099 ft 3 kts 76°
2026-04-24 19:52 24.55217 39.71066 2099 ft 2 kts 76°
2026-04-24 19:52 24.55225 39.71103 2100 ft 8 kts 76°
2026-04-24 19:52 24.55243 39.71180 2100 ft 13 kts 73°
2026-04-24 19:53 24.55324 39.71217 2103 ft 14 kts 349°
2026-04-24 19:53 24.55370 39.71227 2103 ft 4 kts 54°
2026-04-24 19:53 24.55385 39.71297 2105 ft 7 kts 78°
2026-04-24 19:54 24.55388 39.71314 2103 ft 2 kts 78°
2026-04-24 19:54 24.55389 39.71317 2103 ft 0 kts 78°